CAPE
0 0 0 0 0 0 0 0 0 0 0 0 5 5 14 64 139 140 328 428 631 1833 1749 1556 1687 1762 1747 1848 1989 1921 1910 1852 1706 1653 1584 1491 1420 1262 1062 879 796 780 645 170 160 95 100 21 19
0 0 0 0 0 0 0 0 0 0 0 3 65 63 183 178 198 383 795 721 605 1727 1866 1602 1672 1775 1753 1755 1888 2012 2027 1921 1773 1736 1670 1516 1257 1062 974 788 647 583 434 12 13 24 39 23 28
0 0 0 0 0 0 0 0 0 0 0 0 0 49 204 216 312 383 655 580 783 599 1477 1427 1628 1462 1301 1595 1835 1945 1927 1779 1673 1591 1644 1455 1146 1030 877 652 597 598 484 129 22 36 33 19 26
0 0 0 0 0 0 0 0 0 0 0 0 9 38 38 165 687 712 564 643 877 700 906 979 995 930 696 788 1217 1320 1753 1577 1473 1432 1477 1337 1119 1012 794 590 508 470 384 272 43 18 7 6 3
0 0 0 0 0 0 0 0 0 0 0 0 17 9 43 353 429 187 436 640 896 850 764 542 742 680 640 377 304 243 1018 959 1153 1340 1214 1057 1038 861 663 579 512 588 712 513 323 9 1 0 0
0 0 0 0 0 0 0 0 0 0 0 0 0 0 23 107 84 270 662 706 883 802 566 467 602 706 547 289 68 54 385 316 835 867 980 846 794 559 535 447 261 154 287 350 341 7 1 1 0
0 0 0 0 0 0 0 0 0 0 0 0 0 9 2 22 73 504 248 251 479 359 343 266 276 399 262 142 106 98 450 566 589 683 707 493 429 309 366 125 33 120 326 263 126 3 0 0 0
0 0 0 0 0 0 0 0 0 0 0 0 0 16 17 0 165 328 137 144 113 23 26 81 109 41 5 14 0 52 277 432 442 507 386 176 217 252 89 0 135 330 239 125 3 0 0 0 0
0 0 0 0 0 0 0 0 0 0 0 0 4 35 21 81 266 240 144 101 45 59 33 12 11 4 0 0 0 36 307 320 283 271 180 56 91 76 17 0 82 247 149 40 0 0 0 0 0
0 0 0 0 0 0 0 0 0 0 0 4 7 27 33 79 325 268 139 157 103 20 19 26 44 3 3 0 3 6 10 266 191 121 80 13 12 11 0 14 24 156 110 26 4 0 0 0 0
0 0 0 0 0 0 0 0 0 0 0 0 0 0 3 79 250 246 177 89 77 44 7 6 1 1 0 0 0 4 36 88 17 32 42 0 9 14 4 5 0 100 102 0 2 3 0 0 0
0 0 0 0 0 0 0 0 0 0 0 0 0 0 1 128 54 25 23 42 51 4 2 2 1 3 5 0 0 4 2 3 13 30 10 13 0 0 0 0 0 0 54 78 18 1 0 0 0
0 0 0 0 0 0 0 0 0 0 0 0 0 0 1 59 0 0 0 0 2 15 7 4 3 4 1 3 0 11 12 2 0 36 0 4 0 0 0 0 0 0 0 0 0 0 0 0 0
0 0 0 0 0 0 0 0 0 0 0 0 9 59 2 10 16 1 0 0 3 22 11 8 6 6 0 1 0 6 12 5 2 4 5 0 0 0 0 0 0 0 0 0 0 0 0 0 0
0 0 0 0 0 0 0 0 0 0 0 0 29 69 77 0 6 0 0 0 0 5 20 22 20 4 1 0 1 3 11 14 12 4 32 2 0 0 0 0 0 0 0 0 0 0 0 0 0
0 0 0 0 0 0 0 0 0 0 0 0 93 103 118 3 7 2 1 0 2 2 20 20 9 3 1 6 20 3 2 39 2 19 10 3 0 0 0 0 0 0 0 0 0 0 0 0 0
0 0 0 0 0 0 0 0 0 0 0 0 12 141 168 65 4 2 1 2 0 0 13 5 5 3 3 6 37 3 1 1 0 8 2 1 0 0 0 0 0 0 0 0 0 0 0 0 0
0 0 0 0 0 0 0 0 0 0 0 0 0 24 175 122 0 0 2 2 0 8 9 7 6 4 3 9 4 1 1 3 1 10 1 0 0 0 0 0 0 0 0 0 0 0 0 0 0
0 0 0 0 0 0 0 0 0 0 0 0 0 18 71 95 25 2 1 5 4 9 15 10 6 3 1 2 13 2 2 2 2 16 4 1 0 0 0 0 0 7 17 0 0 0 0 0 0
0 0 0 0 0 0 0 0 0 0 0 0 0 0 7 1 3 3 3 5 7 5 7 10 4 3 3 0 14 5 1 2 5 9 7 4 0 0 0 11 34 12 54 7 0 0 0 0 0
0 0 0 0 0 0 0 0 0 0 0 0 0 0 0 0 1 1 5 0 7 1 2 1 3 3 2 0 0 1 1 1 1 1 10 5 1 0 6 34 77 74 59 59 16 4 7 2 0
0 0 0 0 0 0 0 0 0 0 0 0 0 0 0 0 0 1 0 1 1 5 0 11 5 3 3 0 0 1 0 0 0 0 0 2 6 19 39 52 59 125 103 112 84 15 19 6 7
0 0 0 0 0 0 0 0 0 0 0 0 0 0 0 0 0 0 1 1 0 1 3 3 4 1 1 4 3 0 1 0 2 0 0 21 18 7 36 68 148 172 144 187 113 36 14 33 8
0 0 0 0 0 0 0 0 0 0 0 0 0 0 0 0 0 0 0 1 1 1 6 2 5 6 0 0 2 0 0 0 0 0 0 0 3 7 49 68 126 191 254 253 236 129 39 28 0
0 0 0 0 0 0 0 0 0 0 0 0 0 0 0 0 0 0 0 1 2 0 0 0 5 4 2 0 2 0 0 0 0 0 2 4 10 3 17 23 41 77 113 157 173 199 65 48 40
0 0 0 0 0 0 0 0 0 0 0 0 0 0 0 0 0 0 0 0 0 2 1 0 0 4 4 0 0 0 0 0 0 0 0 0 0 1 1 19 22 30 50 85 133 151 138 106 43
0 0 0 0 0 0 0 0 0 0 0 0 0 0 0 0 0 0 0 0 0 0 1 3 4 1 2 1 0 0 0 0 0 0 0 0 0 0 0 0 3 5 18 47 83 99 102 76 14
0 0 0 0 0 0 0 0 0 0 0 0 0 0 0 0 0 0 0 0 0 0 0 1 0 0 0 0 0 0 0 0 0 0 0 0 0 0 0 0 0 0 3 40 71 70 67 9 1
0 0 0 0 0 0 0 0 0 0 0 0 0 0 0 0 0 0 0 0 0 0 0 0 0 0 0 0 0 0 0 0 0 0 0 0 0 0 0 0 0 0 0 2 12 25 23 3 2
0 0 0 0 0 0 0 0 0 0 0 0 0 0 0 0 0 0 5 0 0 0 0 0 0 0 0 0 0 0 0 0 0 0 0 0 0 0 0 0 0 0 0 0 5 0 0 0 0
CIN
0 0 0 0 0 0 0 0 0 0 0 0 -35 -79 -124 -151 -63 -33 -264 -223 -164 0 0 0 -3 -2 0 -14 -28 -35 -10 -10 -16 0 0 0 0 0 0 0 0 0 0 -5 -5 -35 -75 0 0
0 0 0 0 0 0 0 0 0 0 0 -119 -209 -198 -134 -60 -264 -222 -142 -171 -187 -11 0 0 -1 -1 0 0 -12 -10 -2 -11 -19 -4 0 0 0 0 0 0 0 0 0 -37 0 -93 -78 0 0
0 0 0 0 0 0 0 0 0 0 0 0 0 -275 -169 -125 -271 -254 -189 -207 -162 -261 -20 0 -2 -5 -11 -9 0 0 0 -5 -19 -11 -1 0 0 0 0 0 0 0 0 -19 0 0 -44 0 0
0 0 0 0 0 0 0 0 0 0 0 0 -247 -116 -319 -342 -202 -204 -263 -211 -156 -208 -139 -37 -21 -7 -42 -99 -18 -15 -1 -1 -4 -3 0 0 0 0 0 -1 -1 0 0 0 -64 0 0 0 0
0 0 0 0 0 0 0 0 0 0 0 0 -244 -61 -214 -310 -320 -372 -260 -216 -111 -123 -118 -155 -132 -155 -159 -213 -223 -225 -9 -12 -1 0 0 0 0 -1 -4 -2 -2 -1 0 0 0 0 0 0 0
0 0 0 0 0 0 0 0 0 0 0 0 0 0 -223 -439 -425 -303 -183 -172 -107 -106 -147 -136 -83 -137 -224 -290 -285 -227 -27 0 -1 -1 0 0 0 -3 -32 -5 -4 -8 -1 -1 0 -30 0 0 0
0 0 0 0 0 0 0 0 0 0 0 0 0 -137 -98 -417 -414 -227 -281 -272 -170 -171 -153 -182 -161 -121 -194 -241 -215 -221 -92 -7 -6 -2 -1 -2 -2 -12 -48 -40 -34 -6 0 0 0 0 0 0 0
0 0 0 0 0 0 0 0 0 0 0 0 0 -95 -136 0 -287 -212 -273 -286 -266 -330 -291 -194 -149 -230 -305 -300 -14 -149 -62 -28 -3 -7 -3 -9 -8 -22 -95 0 -3 -1 0 -2 0 0 0 0 0
0 0 0 0 0 0 0 0 0 0 0 0 -323 -279 -327 -302 -196 -178 -184 -252 -278 -263 -282 -259 0 0 0 0 0 -137 -18 -40 -22 -2 -4 -27 -26 -61 -127 -10 -9 -12 -3 -11 0 0 0 0 0
0 0 0 0 0 0 0 0 0 0 0 -238 -296 -356 -280 -207 -129 -117 -108 -132 -179 -259 -268 -196 -144 0 0 0 -37 -47 -76 -3 -12 -5 -7 -61 -119 -160 0 -185 -12 -4 -7 -32 -36 0 0 0 0
0 0 0 0 0 0 0 0 0 0 0 0 0 0 -194 -210 -110 -80 -73 -92 -128 -137 -207 -254 0 0 0 0 0 0 -62 -8 -9 -4 -25 0 -124 -85 -214 -298 0 -13 -9 0 -51 -220 0 0 0
0 0 0 0 0 0 0 0 0 0 0 0 0 0 0 -177 -155 -101 -74 -77 -72 -2 -2 0 0 0 0 0 0 -10 0 -1 -1 -3 -41 -112 0 0 0 0 0 -45 -46 -50 -158 -35 0 0 0
0 0 0 0 0 0 0 0 0 0 0 0 0 0 0 -193 0 0 0 0 -7 -11 -16 -27 0 0 0 0 0 -11 -1 0 0 -20 0 -117 0 0 0 0 0 0 0 0 0 0 0 0 0
0 0 0 0 0 0 0 0 0 0 0 0 -325 -256 -74 -177 -180 0 0 0 -9 -5 -19 -39 0 0 -1 0 0 -28 0 0 -11 -16 -117 0 0 0 0 0 0 0 0 0 0 0 0 0 0
0 0 0 0 0 0 0 0 0 0 0 0 -301 -258 -221 0 -194 0 0 0 -5 -4 -12 -33 -18 0 0 0 0 -3 -1 -1 -12 -59 -75 -136 0 0 0 0 0 0 0 0 0 0 0 0 0
0 0 0 0 0 0 0 0 0 0 0 0 -256 -241 -204 -37 -252 0 0 0 0 -4 -1 -14 -5 0 0 0 -5 -15 -1 -1 -10 -88 -127 -180 0 0 0 0 0 0 0 0 0 0 0 0 0
0 0 0 0 0 0 0 0 0 0 0 0 -356 -239 -189 -240 0 0 0 0 -2 0 -3 0 0 0 0 0 0 -2 0 0 0 -162 -120 -142 0 0 0 0 0 0 0 0 0 0 0 0 0
0 0 0 0 0 0 0 0 0 0 0 0 -112 -332 -218 -230 0 0 0 0 0 0 -2 -18 0 0 0 0 -3 0 0 -26 -29 -174 -192 0 0 0 0 0 0 0 0 0 0 0 0 0 0
0 0 0 0 0 0 0 0 0 0 0 0 0 -348 -318 -284 -281 0 0 0 0 0 -2 0 0 0 0 0 0 0 0 0 -1 -107 -170 -191 0 0 0 0 0 -127 -106 -93 0 0 0 0 0
0 0 0 0 0 0 0 0 0 0 0 0 0 0 -352 -56 0 0 0 0 0 0 0 0 0 0 0 0 0 -1 0 0 -33 -83 -123 -182 0 0 0 -75 -89 -151 -121 -150 0 0 0 0 0
0 0 0 0 0 0 0 0 0 0 0 0 0 0 0 0 0 0 0 0 0 0 0 0 0 0 0 0 0 0 0 0 0 -1 -71 -123 -112 -20 -58 -106 -123 -116 -106 -110 -166 -195 -144 -69 0
0 0 0 0 0 0 0 0 0 0 0 0 0 0 0 0 0 0 0 0 0 0 0 0 0 -1 0 0 0 0 0 0 -1 -1 0 -35 -66 -52 -45 -86 -108 -82 -99 -96 -133 -182 -157 -110 -63
0 0 0 0 0 0 0 0 0 0 0 0 0 0 0 0 0 0 0 0 0 0 0 0 -2 0 0 0 0 0 0 0 0 0 0 -35 -52 -72 -76 -88 -52 -72 -84 -88 -131 -187 -180 -103 -70
0 0 0 0 0 0 0 0 0 0 0 0 0 0 0 0 0 0 0 0 0 0 0 0 0 0 0 0 0 0 -3 0 0 0 0 -26 -60 -80 -76 -76 -89 -63 -45 -76 -69 -135 -132 -111 0
0 0 0 0 0 0 0 0 0 0 0 0 0 0 0 0 0 0 0 0 0 0 0 0 0 0 0 0 0 0 0 0 0 0 -22 -23 -40 -93 -92 -78 -70 -70 -77 -64 -64 -66 -97 -98 -60
0 0 0 0 0 0 0 0 0 0 0 0 0 0 0 0 0 0 0 0 0 0 0 0 0 0 0 0 0 0 0 0 0 0 0 0 -10 -49 -90 -87 -85 -79 -70 -73 -94 -79 -46 -44 -44
0 0 0 0 0 0 0 0 0 0 0 0 0 0 0 0 0 0 0 0 0 0 0 0 0 0 0 0 0 0 0 0 0 0 0 0 0 0 0 0 -78 -80 -81 -76 -63 -54 -67 -38 -54
0 0 0 0 0 0 0 0 0 0 0 0 0 0 0 0 0 0 0 0 0 0 0 0 0 0 0 0 0 0 0 0 0 0 0 0 0 0 0 0 0 0 -60 -59 -56 -57 -54 -23 0
0 0 0 0 0 0 0 0 0 0 0 0 0 0 0 0 0 0 0 0 0 0 0 0 0 0 0 0 0 0 0 0 0 0 0 0 0 0 0 0 0 0 0 -37 -101 -72 -43 -22 -17
0 0 0 0 0 0 0 0 0 0 0 0 0 0 0 0 0 0 -591 -43 0 0 0 0 0 0 0 0 0 0 0 0 0 0 0 0 0 0 0 0 0 0 0 0 -115 -5 0 0 0
Wind_Speed
2 4 2 2 2 1 1 3 2 3 3 2 3 3 2 1 3 3 2 4 3 10 12 12 10 14 14 15 18 21 22 25 26 22 22 23 22 22 22 22 20 20 21 22 22 21 21 21 20
4 3 3 3 1 1 1 1 6 7 3 2 2 2 4 2 2 0 3 5 3 3 11 14 12 12 16 15 15 19 22 25 27 25 23 23 24 24 22 22 21 21 21 24 22 22 21 21 20
4 2 1 3 2 1 2 5 8 4 6 4 3 3 2 2 2 3 3 3 2 3 5 12 14 13 12 17 15 15 19 22 26 27 26 25 25 25 23 22 20 21 21 23 23 22 21 20 18
1 1 4 1 2 3 4 4 5 6 2 2 1 4 2 3 2 2 2 1 4 5 5 9 15 18 13 15 10 19 15 16 20 24 26 27 26 25 23 21 20 20 21 23 23 23 21 19 18
3 1 3 1 3 4 6 5 3 3 1 2 2 2 4 3 1 0 3 3 3 7 9 13 17 19 19 14 8 7 13 18 14 20 22 25 25 27 24 21 18 18 19 22 23 21 21 19 19
2 0 1 3 3 3 6 6 3 1 3 3 4 2 3 1 1 4 5 2 3 11 10 16 13 14 16 19 11 9 9 18 22 17 23 25 24 24 26 22 19 17 17 18 21 20 20 20 19
3 2 2 2 3 4 3 2 3 3 3 4 1 3 1 3 2 4 4 6 7 7 11 11 11 12 11 9 12 13 20 25 25 25 22 24 24 24 25 24 20 18 20 20 20 20 20 19 20
4 2 4 4 3 3 3 2 1 4 3 4 4 6 3 1 3 4 5 7 8 7 5 6 8 5 4 4 6 9 14 18 25 28 25 23 23 25 25 24 20 21 21 21 20 20 20 20 19
3 2 4 5 7 3 2 4 2 1 4 3 6 2 2 6 6 5 4 5 5 6 5 4 5 4 3 3 6 8 20 24 23 27 24 21 14 19 21 20 21 21 20 20 20 19 18 18 17
4 4 9 6 5 4 4 5 3 4 3 6 4 3 5 6 6 7 5 4 4 4 6 5 6 5 5 4 4 9 10 14 14 16 17 12 14 11 14 18 19 19 20 20 19 18 18 15 12
6 6 6 6 11 6 4 3 4 4 9 12 7 10 10 8 8 7 6 5 6 6 4 3 2 3 2 1 2 1 2 9 9 14 10 13 13 11 8 9 9 11 17 12 13 15 9 11 10
5 9 6 3 5 5 4 2 4 11 8 3 7 12 13 12 8 7 7 6 6 5 4 2 3 3 4 2 1 2 4 4 10 10 15 12 9 11 9 6 8 10 9 14 12 8 10 10 12
6 6 6 9 7 6 4 10 8 13 8 7 10 13 12 10 9 7 6 4 4 6 4 5 6 5 5 4 2 2 6 7 11 5 11 11 11 10 10 7 6 8 10 10 9 9 10 9 12
4 7 7 7 10 5 6 3 3 3 5 10 12 12 12 12 12 7 6 7 6 7 7 7 7 7 5 4 2 3 8 10 9 5 7 9 12 10 9 7 6 7 8 8 9 10 9 9 10
2 6 8 8 5 4 7 5 10 3 6 8 9 11 11 12 11 11 8 8 7 4 6 8 9 8 8 6 4 3 5 12 8 8 9 11 14 14 11 8 7 7 7 9 7 7 8 8 7
3 2 5 1 4 1 6 8 1 1 8 9 10 9 11 12 13 11 10 9 7 4 5 7 6 7 8 8 6 5 6 9 7 8 8 11 14 14 11 9 7 8 6 6 6 6 7 7 6
2 7 6 6 3 3 4 6 4 5 8 9 11 10 10 10 10 10 10 8 6 6 7 7 6 8 10 8 8 6 8 7 6 6 7 11 13 12 11 8 9 7 5 5 7 6 7 7 7
8 6 6 8 2 1 3 14 18 9 10 12 11 11 12 12 14 11 11 9 8 8 7 8 7 10 10 8 7 5 6 6 5 4 6 8 9 6 9 7 7 6 6 7 7 7 6 6 7
7 6 7 4 4 2 10 8 15 7 7 10 11 12 14 13 9 12 11 10 8 8 8 9 10 10 10 8 8 6 5 6 7 3 7 9 8 5 7 7 6 7 9 8 8 5 6 3 5
7 7 10 12 4 8 9 13 15 9 8 8 9 13 14 13 12 13 13 11 11 10 10 10 11 11 11 8 10 4 5 5 7 6 5 6 8 8 8 10 8 8 6 8 9 7 4 3 6
15 18 14 13 6 4 7 9 6 3 4 5 8 9 13 17 17 15 14 13 12 13 13 13 12 12 11 10 8 7 7 6 6 10 5 6 7 9 9 10 6 8 8 8 9 9 8 6 6
14 10 13 13 6 7 3 9 5 8 13 7 9 11 12 15 16 16 18 16 15 14 13 14 14 12 12 11 10 14 7 9 8 12 8 8 12 11 9 7 8 8 6 9 9 9 8 6 7
12 8 12 11 9 6 9 7 2 3 9 14 9 9 14 18 19 20 21 19 17 15 14 14 14 14 13 15 15 11 10 8 9 10 13 11 11 13 13 12 12 9 8 8 8 7 9 8 5
5 4 2 2 3 7 9 7 6 7 12 7 4 6 9 16 19 18 18 17 17 15 15 15 16 16 15 15 16 18 14 13 12 14 14 12 10 10 12 10 9 10 10 9 10 10 11 10 8
6 4 3 3 5 7 2 8 11 9 13 10 11 12 6 14 18 19 20 19 19 19 18 15 18 17 17 18 17 16 15 14 16 15 12 13 10 7 10 12 11 9 10 10 9 9 10 10 10
13 13 5 7 6 2 4 6 5 7 10 10 8 12 7 12 16 20 23 21 20 21 21 18 19 18 18 18 19 16 16 10 10 11 10 8 10 10 12 12 11 12 12 11 9 7 9 10 10
6 11 11 1 1 2 4 4 10 8 9 6 8 6 6 9 15 19 20 20 20 20 22 22 21 19 19 19 17 17 15 15 13 13 11 9 10 9 11 12 12 12 10 10 10 8 9 10 11
8 10 6 3 6 9 5 4 7 4 8 5 7 5 7 3 10 14 18 21 18 18 18 19 20 22 21 20 18 16 17 16 14 13 15 14 12 12 11 12 13 12 12 11 10 9 10 10 7
7 7 2 5 4 6 5 4 7 13 9 6 7 7 5 2 9 12 13 14 17 17 18 18 19 20 20 20 19 18 17 17 15 15 15 16 14 14 13 12 12 13 13 11 10 11 11 12 10
2 7 10 7 5 2 2 6 4 10 8 7 8 8 6 4 5 11 13 15 17 18 19 21 19 19 19 17 18 18 16 17 19 20 21 17 17 15 15 15 15 14 11 10 11 13 13 13 10
Wind_Direction
115 105 100 63 194 301 201 214 302 232 246 220 304 221 274 272 261 300 43 338 280 170 161 160 141 142 149 147 146 142 145 141 134 134 136 131 130 127 128 126 126 127 127 125 123 120 116 115 106
126 147 77 93 107 133 172 243 231 233 234 140 178 225 246 284 223 172 177 18 4 170 170 165 155 157 147 144 144 147 150 145 140 140 139 137 130 131 131 130 132 132 131 128 126 122 118 115 108
142 17 115 82 122 185 260 223 257 263 244 210 206 233 262 229 180 155 162 99 56 74 150 169 140 135 158 132 149 151 151 150 144 144 143 139 137 134 134 132 134 134 133 127 126 121 114 113 110
161 69 89 133 222 240 239 277 278 296 206 222 234 249 234 228 190 146 338 285 163 144 125 125 113 112 105 103 132 161 150 148 147 147 145 141 139 136 133 131 136 141 132 127 125 123 122 116 115
48 75 82 146 255 268 253 277 284 293 148 159 182 219 239 196 170 6 305 271 194 148 131 133 134 130 114 94 113 97 164 153 150 151 147 142 143 138 134 134 141 133 135 138 129 129 125 119 115
87 109 132 224 239 256 269 264 233 223 246 163 219 231 256 27 280 334 317 322 203 158 149 143 147 142 132 131 132 139 153 161 167 182 153 146 144 142 133 129 130 127 129 131 130 133 125 122 118
150 134 209 222 262 280 242 214 239 229 235 240 126 254 300 251 357 12 25 58 73 130 146 138 146 154 146 149 169 184 176 186 174 167 159 147 143 140 128 128 126 136 133 132 134 130 126 125 125
128 117 174 217 186 262 249 248 254 223 249 127 171 239 237 153 98 80 68 78 91 111 122 141 129 152 134 123 212 209 196 184 192 161 154 143 137 130 126 123 131 142 138 134 133 129 131 132 125
169 155 220 214 173 231 240 283 146 299 260 206 196 225 84 133 144 140 123 97 97 122 144 142 137 158 224 226 232 230 208 192 193 156 135 130 129 128 129 127 134 140 136 133 131 130 129 126 124
198 198 217 201 189 256 265 246 269 244 233 243 201 115 139 167 174 166 166 148 149 149 156 170 184 206 175 190 202 237 234 197 173 145 132 120 117 122 125 124 129 137 135 132 131 126 125 137 132
186 227 206 223 231 244 269 264 202 233 259 244 222 180 181 178 185 193 186 187 181 186 197 187 132 123 121 217 343 340 199 188 157 113 117 120 119 122 120 120 126 136 138 140 136 136 143 139 142
220 236 215 238 209 160 246 157 238 218 256 98 161 160 172 183 182 193 205 200 200 195 211 184 148 144 144 134 76 360 119 108 121 124 135 123 121 128 125 123 126 142 150 149 156 152 148 149 137
230 256 203 241 244 246 193 235 255 250 213 145 130 152 177 180 172 195 210 220 198 201 193 175 156 156 147 153 118 54 139 103 109 111 116 127 137 124 123 121 136 141 150 152 143 147 146 158 140
224 240 260 273 261 229 245 259 173 266 219 188 162 165 174 187 181 173 197 226 219 227 188 170 168 148 143 136 112 67 113 118 122 100 112 138 124 129 122 133 138 131 145 150 145 158 153 167 143
266 277 292 247 251 236 185 233 232 215 165 176 178 167 173 186 180 184 191 219 223 232 187 173 176 154 152 137 121 104 123 132 133 132 142 148 133 130 137 140 139 129 143 134 124 142 181 147 146
233 196 267 317 166 121 211 277 270 221 192 207 185 185 185 190 201 194 191 212 204 184 187 182 171 145 141 143 137 129 118 131 135 143 143 149 132 142 141 141 138 137 140 115 119 175 153 139 148
223 254 235 300 214 138 202 268 272 153 194 215 193 194 203 193 201 198 186 197 187 203 200 185 159 141 141 130 132 111 112 115 127 126 133 132 139 147 143 147 133 132 112 125 154 180 149 156 167
207 230 230 244 141 80 230 258 283 258 230 238 212 188 205 205 212 192 185 184 187 190 188 168 148 141 134 131 119 100 101 124 124 107 124 138 131 142 141 121 117 123 140 168 184 176 164 173 165
201 227 237 237 210 252 263 268 282 283 225 238 229 201 195 212 213 189 185 182 183 181 175 163 153 150 143 149 146 139 135 134 139 127 134 144 140 170 119 89 148 179 169 178 190 167 172 156 168
214 224 241 288 272 226 277 291 293 269 249 241 233 218 196 188 195 186 180 183 188 184 185 169 167 164 160 158 167 150 139 140 157 154 141 141 143 170 140 179 186 176 170 171 198 170 169 177 188
229 232 243 255 333 249 274 273 263 294 261 246 232 224 207 190 188 189 182 186 190 192 188 181 171 172 167 148 125 111 108 120 145 168 158 161 180 156 186 180 182 190 185 187 197 194 182 199 194
233 215 236 255 274 274 332 290 274 274 273 245 250 210 199 197 192 186 185 188 194 198 186 181 172 175 172 166 144 151 153 154 165 169 169 174 183 183 193 181 187 207 192 204 196 197 199 199 209
235 172 207 237 246 282 241 261 253 285 263 265 259 226 197 192 192 187 190 187 191 193 191 184 177 177 172 180 178 164 161 159 155 158 175 189 184 187 195 202 201 204 215 219 206 185 200 212 204
203 128 107 95 200 243 232 223 272 229 238 255 256 247 197 189 195 191 188 180 187 193 194 184 182 181 178 180 186 188 180 173 167 173 181 187 187 186 190 197 196 206 214 212 220 205 208 210 209
207 142 242 227 212 242 221 197 262 256 250 253 270 285 236 182 187 184 185 184 183 188 191 191 189 187 185 185 188 190 185 183 179 180 182 181 190 195 195 198 205 210 215 219 216 210 213 214 214
199 196 191 222 219 228 130 219 238 264 279 263 268 274 269 185 187 192 188 187 185 186 189 189 191 192 191 188 190 193 197 193 193 189 184 189 197 198 198 202 207 213 218 219 213 220 225 222 222
175 198 214 229 90 308 220 251 279 285 288 292 281 289 280 210 194 195 190 189 190 188 189 189 187 193 193 193 192 196 197 202 204 207 206 206 206 200 203 202 209 218 221 225 226 227 230 228 225
190 158 161 206 230 242 206 232 226 280 288 311 338 335 314 182 188 192 196 190 191 195 190 192 192 191 192 193 196 200 201 203 206 208 214 213 216 218 218 224 230 230 223 221 222 228 233 220 218
184 212 169 192 199 251 262 230 217 236 251 253 295 314 306 279 190 192 201 201 189 188 191 193 198 195 195 196 196 199 200 202 203 209 214 216 217 216 215 216 219 223 221 210 212 225 229 219 232
169 218 223 226 206 244 285 238 249 233 240 236 277 300 311 272 191 188 189 188 188 190 192 194 195 201 201 197 198 205 206 202 203 208 212 210 216 215 217 217 221 221 208 194 215 237 234 215 211